コワルスキー彗星

425P/Kowalski (2005)

English version
Home page
Updated on August 21, 2021

---------------------------------------------------------------------

・ プロフィール

符号 425P/2005 W3
発見日 2005年11月25日
発見光度 18.2等
発見者 Richard Kowalski (Catalina Sky Survey)

・ 軌道要素

Epoch 2005 Aug. 18.0 TT = JDT 2453600.5                                         
T 2005 Aug. 23.05438 TT                                 Rudenko                 
q   3.0084176            (2000.0)            P               Q                  
n   0.06076657     Peri.  199.23574     +0.63934772     -0.75392306             
a   6.4075635      Node   211.56599     +0.73788108     +0.65684785             
e   0.5304896      Incl.   16.77811     +0.21625446     -0.01228467             
P  16.2                                                                         
From 138 observations 2005 Sept. 30-2021 July 20, mean residual 0".8.           

・ 光度変化

        m1 = 12.0 + 5 logΔ + 10.0 log r

---------------------------------------------------------------------

軌道要素はM.P.E.C. 2021-O66に掲載されたものです。
光度グラフはComet for Windowsで作成したものです。

---------------------------------------------------------------------

Copyright(C) Seiichi Yoshida (comet@aerith.net). All rights reserved.